Showing default

IRIDIUM 131, 43079

Orbit data source: Space-Track

IRIDIUM 131, 43079 is a payload satellite owned by Iridium (US) in LEO that was launched on Sat, 23 Dec 2017 UTC via an FALCON 9 launch vehicle from the Air Force Western Test Range (AFWTR). Payload-class satellites include a variety of spacecraft equipped with specific instruments for various scientific and technological missions. These include communications satellites like Starlink; space stations such as the ISS; scientific satellites like the Hubble; Earth observation satellites from companies like Planet Labs, Umbra, and HawkEye 360; GPS; miniature CubeSats for education and research; and military/defense satellites.

Loading next visibility...
Identifier
43079, 2017-083K
Orbit
LEO
Country
Flag of USUS
Related business
Manufacturer
OATK SSG Gilbert
Mission
Operational Commercial Communications
Bus & Motor
ELITEBUS, Unknown motor
Mass
860 kg wet, 700 kg dry
Launch date (UTC)
2017-12-23 (8 years ago)
Launch vehicle
FALCON 9
Launch site
Air Force Western Test Range (AFWTR)
Object type
Payload
Rocket body
Debris
Shape & HBR
Trap Box + 2 Pan, 4.7 m
Radar Cross Section
14.423 m², Large (>1 m²)

Expand to show TLE details & history
Last TLE update: 6 hours ago

TLE from 6 hours ago
0 IRIDIUM 131
1 43079U 17083K   25258.23188727  .00000138  00000-0  42363-4 0  9996
2 43079  86.3911  77.1012 0001974  89.2339 270.9083 14.34218009404690
Epoch: 2025-09-15T05:33Z
TLE epoch observation values (Epoch: 2025-09-15T05:33:55.06Z)
Latitude
-0°
Longitude
-0.81772°
Altitude
780.695 km
Speed
7.464 km/s
True Right ascension
05h 08m 24s
True Declination
0° 00' 00"
Sunlit
Object was in daylight at epoch
Visualization orbit readout
Latitude
Unknown
Longitude
Unknown
Altitude
Unknown
Speed
Unknown
Apparent Right ascension
Unknown
Apparent Declination
Unknown
Sunlit
N/A
Visualization observer readout
Local Sidereal Time
04:06:04
Azimuth
Unknown
Elevation
Unknown
Doppler factor
Unknown
Orbital elements
Apogee altitude
776.043 km
Perigee altitude
773.219 km
Semi-major axis
7,152.768 km
Eccentricity
0.0002
Inclination
86.3911°
RAAN
77.1012°
Arg. of periapsis
89.2339°
True anomaly
270.88568°
Mean anomaly
270.9083°
Eccentric anomaly
270.89699°
Mean motion
3.58783 °/min
Orbital period
100.34 mins
BSTAR
0.000042363
Loading maneuver chart data...
Computing Atmospheric mass density...
Loading historical data...
Loading historical data...
Loading historical data...
Loading historical data...
Loading historical data...
Loading historical data...
Loading historical data...

Documentation

Showing up to 5 results
|